KLM186 EDDM-LOWI

Flight info

Callsign KLM186
Flight time 0h 24m
Altitude 15000
Route TURBU7S/26L TURBU Y107 RTT
Aircraft B738/M-SDE2E3FGHIRWXY/LB1

Departure

Time 2026-05-05 19:37
Airport Munich Airport (EDDM)

Arrival

Time 2026-05-05 20:01
Airport Innsbruck Airport (LOWI)
Time Latitude Longitude Altitude Speed Heading
2026-05-05 19:15 48.35713 11.79271 1485 ft 0 kts 263°
2026-05-05 19:26 48.35713 11.79274 1485 ft 2 kts 263°
2026-05-05 19:27 48.35715 11.79291 1473 ft 3 kts 263°
2026-05-05 19:27 48.35717 11.79315 1478 ft 2 kts 263°
2026-05-05 19:27 48.35719 11.79339 1473 ft 2 kts 263°
2026-05-05 19:27 48.35721 11.79364 1474 ft 2 kts 263°
2026-05-05 19:28 48.35722 11.79388 1477 ft 2 kts 263°
2026-05-05 19:28 48.35724 11.79412 1482 ft 2 kts 263°
2026-05-05 19:28 48.35726 11.79426 1480 ft 0 kts 207°
2026-05-05 19:29 48.35669 11.79416 1480 ft 14 kts 177°
2026-05-05 19:30 48.35574 11.79430 1483 ft 13 kts 171°
2026-05-05 19:30 48.35477 11.79450 1485 ft 14 kts 174°
2026-05-05 19:30 48.35377 11.79466 1474 ft 11 kts 174°
2026-05-05 19:30 48.35307 11.79480 1480 ft 11 kts 175°
2026-05-05 19:31 48.35186 11.79500 1473 ft 19 kts 172°
2026-05-05 19:31 48.35082 11.79604 1478 ft 18 kts 124°
2026-05-05 19:31 48.35061 11.79658 1470 ft 0 kts 212°
2026-05-05 19:31 48.35025 11.79660 1475 ft 3 kts 171°
2026-05-05 19:32 48.34965 11.79673 1476 ft 16 kts 172°
2026-05-05 19:32 48.34878 11.79689 1472 ft 9 kts 173°
2026-05-05 19:32 48.34871 11.79691 1474 ft 1 kts 173°
2026-05-05 19:32 48.34815 11.79719 1479 ft 15 kts 131°
2026-05-05 19:33 48.34817 11.79908 1485 ft 27 kts 83°
2026-05-05 19:33 48.34839 11.80155 1474 ft 21 kts 82°
2026-05-05 19:33 48.34837 11.80307 1475 ft 14 kts 110°
2026-05-05 19:33 48.34762 11.80391 1482 ft 14 kts 169°
2026-05-05 19:34 48.34732 11.80397 1473 ft 0 kts 173°
2026-05-05 19:34 48.34719 11.80400 1485 ft 3 kts 173°
2026-05-05 19:34 48.34689 11.80405 1473 ft 0 kts 173°
2026-05-05 19:35 48.34593 11.80421 1481 ft 23 kts 180°
2026-05-05 19:35 48.34473 11.80284 1475 ft 22 kts 250°
2026-05-05 19:35 48.34462 11.80202 1481 ft 0 kts 262°
2026-05-05 19:36 48.34462 11.80199 1482 ft 1 kts 263°
2026-05-05 19:36 48.34446 11.80014 1480 ft 50 kts 263°
2026-05-05 19:36 48.34376 11.79120 1480 ft 121 kts 263°
2026-05-05 19:36 48.34259 11.77579 1647 ft 167 kts 264°
2026-05-05 19:37 48.34177 11.76429 2218 ft 169 kts 265°
2026-05-05 19:37 48.34036 11.74599 3035 ft 185 kts 264°
2026-05-05 19:37 48.33735 11.72667 3892 ft 199 kts 243°
2026-05-05 19:37 48.32738 11.71228 4906 ft 202 kts 211°
2026-05-05 19:38 48.31317 11.70671 5521 ft 222 kts 188°
2026-05-05 19:38 48.29769 11.70631 6403 ft 223 kts 181°
2026-05-05 19:38 48.28210 11.71178 6956 ft 243 kts 159°
2026-05-05 19:38 48.26693 11.72670 7093 ft 274 kts 147°
2026-05-05 19:39 48.25137 11.74390 7080 ft 279 kts 146°
2026-05-05 19:39 48.23481 11.76178 7297 ft 303 kts 148°
2026-05-05 19:39 48.21791 11.77912 8669 ft 291 kts 149°
2026-05-05 19:39 48.20104 11.79597 9784 ft 290 kts 149°
2026-05-05 19:40 48.18405 11.81241 10702 ft 293 kts 154°
2026-05-05 19:40 48.16531 11.82407 11622 ft 291 kts 163°
2026-05-05 19:40 48.14597 11.83397 12469 ft 296 kts 164°
2026-05-05 19:40 48.12630 11.84367 13332 ft 300 kts 165°
2026-05-05 19:41 48.10636 11.85336 14107 ft 303 kts 165°
2026-05-05 19:41 48.08646 11.86321 14847 ft 308 kts 164°
2026-05-05 19:41 48.06562 11.87361 15003 ft 320 kts 164°
2026-05-05 19:41 48.04473 11.88405 15012 ft 313 kts 164°
2026-05-05 19:42 48.02422 11.89426 15020 ft 308 kts 164°
2026-05-05 19:42 48.00376 11.90437 14938 ft 313 kts 164°
2026-05-05 19:42 47.98319 11.91452 14886 ft 309 kts 164°
2026-05-05 19:42 47.96285 11.92458 14879 ft 308 kts 164°
2026-05-05 19:43 47.94251 11.93463 14865 ft 309 kts 164°
2026-05-05 19:43 47.92201 11.94441 14864 ft 308 kts 168°
2026-05-05 19:43 47.90091 11.94829 14865 ft 305 kts 182°
2026-05-05 19:43 47.87969 11.94833 14864 ft 306 kts 182°
2026-05-05 19:44 47.85839 11.94792 14865 ft 306 kts 183°
2026-05-05 19:44 47.83716 11.94733 14867 ft 306 kts 183°
2026-05-05 19:44 47.81587 11.94680 14875 ft 306 kts 183°
2026-05-05 19:44 47.79449 11.94638 14864 ft 307 kts 183°
2026-05-05 19:45 47.77316 11.94603 14862 ft 307 kts 183°
2026-05-05 19:45 47.75184 11.94567 14830 ft 305 kts 183°
2026-05-05 19:45 47.73066 11.94529 14590 ft 300 kts 183°
2026-05-05 19:45 47.71028 11.94493 14361 ft 294 kts 183°
2026-05-05 19:46 47.69004 11.94458 14115 ft 288 kts 183°
2026-05-05 19:46 47.67016 11.94424 13850 ft 283 kts 183°
2026-05-05 19:46 47.65061 11.94388 13580 ft 279 kts 183°
2026-05-05 19:46 47.63134 11.94355 13353 ft 275 kts 183°
2026-05-05 19:47 47.61223 11.94322 12922 ft 278 kts 183°
2026-05-05 19:47 47.59284 11.94286 12459 ft 282 kts 183°
2026-05-05 19:47 47.57317 11.94251 12033 ft 284 kts 183°
2026-05-05 19:47 47.55330 11.94216 11612 ft 287 kts 182°
2026-05-05 19:48 47.53332 11.94181 11220 ft 288 kts 182°
2026-05-05 19:48 47.51318 11.94147 10771 ft 290 kts 182°
2026-05-05 19:48 47.49302 11.94112 10391 ft 290 kts 182°
2026-05-05 19:48 47.47318 11.94078 9976 ft 281 kts 182°
2026-05-05 19:49 47.45360 11.94045 9556 ft 283 kts 182°
2026-05-05 19:49 47.43436 11.93719 9411 ft 270 kts 195°
2026-05-05 19:49 47.41723 11.92756 9399 ft 255 kts 209°
2026-05-05 19:49 47.40213 11.91469 9449 ft 244 kts 211°
2026-05-05 19:50 47.38779 11.90216 9440 ft 231 kts 212°
2026-05-05 19:50 47.37443 11.89035 9431 ft 216 kts 211°
2026-05-05 19:50 47.36179 11.87914 9480 ft 205 kts 211°
2026-05-05 19:50 47.35024 11.86893 9450 ft 196 kts 211°
2026-05-05 19:51 47.33878 11.85764 9378 ft 188 kts 225°
2026-05-05 19:51 47.33223 11.84153 9411 ft 186 kts 247°
2026-05-05 19:51 47.32727 11.82405 9347 ft 186 kts 246°
2026-05-05 19:51 47.32330 11.80680 9394 ft 182 kts 252°
2026-05-05 19:52 47.32019 11.78818 9207 ft 181 kts 255°
2026-05-05 19:52 47.31762 11.77029 9074 ft 179 kts 256°
2026-05-05 19:52 47.31510 11.75206 9060 ft 183 kts 256°
2026-05-05 19:52 47.31260 11.73372 9001 ft 182 kts 256°
2026-05-05 19:53 47.31010 11.71541 8575 ft 186 kts 256°
2026-05-05 19:53 47.30757 11.69679 8021 ft 188 kts 256°
2026-05-05 19:53 47.30499 11.67777 7443 ft 189 kts 256°
2026-05-05 19:53 47.30244 11.65901 6976 ft 181 kts 256°
2026-05-05 19:54 47.29999 11.64102 6703 ft 178 kts 256°
2026-05-05 19:54 47.29752 11.62301 6423 ft 179 kts 256°
2026-05-05 19:54 47.29505 11.60499 6086 ft 178 kts 255°
2026-05-05 19:54 47.29263 11.58721 5806 ft 179 kts 256°
2026-05-05 19:55 47.29019 11.56939 5524 ft 179 kts 256°
2026-05-05 19:55 47.28773 11.55150 5248 ft 178 kts 256°
2026-05-05 19:55 47.28523 11.53332 4965 ft 181 kts 255°
2026-05-05 19:55 47.28269 11.51482 4669 ft 183 kts 255°
2026-05-05 19:56 47.28018 11.49660 4357 ft 180 kts 256°
2026-05-05 19:56 47.27744 11.47900 4185 ft 175 kts 249°
2026-05-05 19:56 47.27257 11.46298 4135 ft 174 kts 239°
2026-05-05 19:56 47.26608 11.44824 4278 ft 173 kts 233°
2026-05-05 19:57 47.25903 11.43345 4270 ft 181 kts 233°
2026-05-05 19:57 47.25196 11.41910 4237 ft 172 kts 232°
2026-05-05 19:57 47.24569 11.40370 4004 ft 175 kts 248°
2026-05-05 19:57 47.24168 11.38695 3783 ft 177 kts 258°
2026-05-05 19:58 47.24064 11.36909 3809 ft 174 kts 267°
2026-05-05 19:58 47.24056 11.35095 3820 ft 170 kts 267°
2026-05-05 19:58 47.24025 11.33394 3767 ft 173 kts 267°
2026-05-05 19:58 47.24008 11.31674 3697 ft 161 kts 268°
2026-05-05 19:59 47.23992 11.30017 3727 ft 166 kts 269°
2026-05-05 19:59 47.23978 11.28370 3700 ft 155 kts 266°
2026-05-05 19:59 47.24114 11.26769 3715 ft 166 kts 296°
2026-05-05 19:59 47.24923 11.25615 3412 ft 161 kts 336°
2026-05-05 20:00 47.25986 11.25756 3070 ft 168 kts 38°
2026-05-05 20:00 47.26357 11.27201 2837 ft 152 kts 103°
2026-05-05 20:00 47.25926 11.28691 2650 ft 157 kts 114°
2026-05-05 20:00 47.25696 11.30224 2465 ft 154 kts 91°
2026-05-05 20:01 47.25736 11.31834 2148 ft 160 kts 86°
2026-05-05 20:01 47.25917 11.33442 1921 ft 155 kts 82°
2026-05-05 20:01 47.26068 11.34773 1901 ft 81 kts 82°
2026-05-05 20:01 47.26102 11.35224 1912 ft 21 kts 116°
2026-05-05 20:02 47.26000 11.35271 1906 ft 15 kts 171°
2026-05-05 20:02 47.25906 11.35266 1906 ft 13 kts 233°
2026-05-05 20:02 47.25878 11.35148 1906 ft 8 kts 199°
2026-05-05 20:02 47.25839 11.35156 1910 ft 0 kts 171°